15 daagse weersverwachting Palma (ES)

  • Overzicht
  • Per uur
  • 15 dagen
  • Extra
  • Vergelijk
  • Kaarten
  • Dagkaart
  • Meer »
  • Info
  • Statistieken
  • Directe link
    Temp 6h Neerslag Wind  
 07:34     20:13    Daglengte: 12:39 Vandaag
14:00
17°
0.2 mm
7
20:00
15°
0.1 mm
5
warningclass
 07:33     20:14    Daglengte: 12:41 Morgen
02:00
14°
 
4
08:00
13°
 
3
14:00
16°
2.7 mm
4
warningclass
20:00
14°
2.9 mm
3
 07:31     20:15    Daglengte: 12:44 Donderdag 02 Apr
02:00
13°
2.8 mm
3
08:00
12°
1.2 mm
2
14:00
16°
2.8 mm
3
20:00
13°
9.8 mm
3
 07:30     20:15    Daglengte: 12:45 Vrijdag 03 Apr
02:00
12°
 
2
08:00
12°
 
3
Locatie info
Region: Islas Baleares
Latitude: 39.5715°N
Longitude: 2.6469°E
34 masl
Postcode: 07012
Temp/Neerslag /Baro Onweer/Dauwpunt
    Temp Baro 1h Neerslag Dauwpunt Wind UV Bewolking  
 07:34     20:13    Daglengte: 12:39 Vandaag
13:00
16°
1009.8 hPa   10.6°
8
Windvlaag: 0.8 km/h
90%
14:00
17°
1009.7 hPa 0.2 mm
53%
10.9°
7
Windvlaag: 0.8 km/h
87%
15:00
16°
1009.5 hPa
55%
11.4°
7
Windvlaag: 1 km/h
86%
16:00
16°
1009.0 hPa 0.1 mm
63%
11.7°
6
Windvlaag: 0.8 km/h
84%
17:00
16°
1008.8 hPa
64%
10.7°
6
Windvlaag: 1.2 km/h
63%
18:00
16°
1008.7 hPa
64%
10.6°
6
Windvlaag: 2.2 km/h
53% warningclass
19:00
16°
1008.7 hPa
64%
10.7°
6
Windvlaag: 0.3 km/h
27% warningclass
20:00
15°
1009.0 hPa
63%
11.7°
5
Windvlaag: 0.1 km/h
29% warningclass
21:00
14°
1009.7 hPa
63%
12.3°
5
Windvlaag: -0.1 km/h
51% warningclass
22:00
14°
1010.4 hPa
62%
12.4°
5
Windvlaag: 0.1 km/h
66% warningclass
23:00
14°
1010.8 hPa
62%
12.6°
5
Windvlaag: 0.1 km/h
79%
 07:33     20:14    Daglengte: 12:41 Morgen
00:00
14°
1010.9 hPa
62%
12.6°
5
Windvlaag: 0.2 km/h
71%
01:00
14°
1010.8 hPa
62%
12.7°
5
Windvlaag: 0 km/h
57%
02:00
14°
1010.8 hPa
62%
12.7°
4
Windvlaag: 0 km/h
55%
03:00
14°
1010.7 hPa
65%
12.9°
4
Windvlaag: -0.2 km/h
64%
04:00
13°
1010.4 hPa
64%
13.0°
3
Windvlaag: 0.3 km/h
65%
05:00
13°
1010.4 hPa
67%
13.0°
3
Windvlaag: 0.5 km/h
74%
06:00
14°
1010.5 hPa
65%
13.0°
3
Windvlaag: 0.5 km/h
79%
07:00
14°
1010.7 hPa
67%
13.0°
3
Windvlaag: 0.6 km/h
78%
08:00
13°
1010.9 hPa
70%
12.9°
3
Windvlaag: 1.5 km/h
90%
09:00
14°
1011.2 hPa 0.2 mm
74%
12.6°
3
Windvlaag: 1.7 km/h
89%
10:00
15°
1011.5 hPa 0.3 mm
77%
12.1°
3
Windvlaag: 1.8 km/h
82%
11:00
16°
1011.8 hPa 0.3 mm
80%
12.0°
3
Windvlaag: 2 km/h
72%
12:00
16°
1011.8 hPa 0.5 mm
80%
11.7°
4
Windvlaag: 2.5 km/h
56% warningclass
13:00
16°
1011.6 hPa 0.6 mm
82%
12.2°
4
Windvlaag: 4.4 km/h
64% warningclass
14:00
16°
1011.4 hPa 0.8 mm
82%
12.5°
4
Windvlaag: 4.9 km/h
73% warningclass
15:00
16°
1011.1 hPa 0.8 mm
82%
12.4°
4
Windvlaag: 4.6 km/h
70% warningclass
16:00
16°
1010.7 hPa 0.7 mm
82%
12.1°
4
Windvlaag: 3.6 km/h
77% warningclass
17:00
16°
1010.4 hPa 1.4 mm
82%
12.2°
4
Windvlaag: 3.3 km/h
60% warningclass
18:00
15°
1010.3 hPa
78%
12.1°
4
Windvlaag: 3.1 km/h
49%
19:00
15°
1010.3 hPa
32%
12.3°
4
Windvlaag: 3.4 km/h
42%
20:00
14°
1010.5 hPa
25%
12.5°
3
Windvlaag: 2.8 km/h
35%
21:00
13°
1010.7 hPa
24%
12.2°
3
Windvlaag: 2.1 km/h
42%
22:00
13°
1011.1 hPa
20%
12.4°
3
Windvlaag: 2.2 km/h
35%
23:00
13°
1011.5 hPa 0.8 mm
63%
12.3°
3
Windvlaag: 4.1 km/h
38%
 07:31     20:15    Daglengte: 12:44 Donderdag 02 Apr
00:00
13°
1011.3 hPa
65%
12.3°
3
Windvlaag: 3.9 km/h
48%
01:00
13°
1010.9 hPa 0.7 mm
67%
12.3°
3
Windvlaag: 3.8 km/h
54%
02:00
13°
1010.4 hPa 1.3 mm
69%
12.3°
3
Windvlaag: 3.7 km/h
48%
03:00
13°
1009.7 hPa 1.2 mm
68%
12.0°
3
Windvlaag: 2.9 km/h
32%
04:00
13°
1009.0 hPa
69%
11.9°
3
Windvlaag: 2.9 km/h
39%
05:00
12°
1008.4 hPa
46%
11.9°
2
Windvlaag: 3.3 km/h
69%
06:00
12°
1008.1 hPa
88%
11.9°
2
Windvlaag: 3.3 km/h
85%
07:00
12°
1008.0 hPa
37%
11.9°
2
Windvlaag: 2.4 km/h
83%
08:00
12°
1008.2 hPa
31%
11.7°
2
Windvlaag: 2.2 km/h
76%
09:00
12°
1008.5 hPa
29%
11.7°
2
Windvlaag: 1.6 km/h
85%
10:00
13°
1008.6 hPa
26%
11.6°
2
Windvlaag: 0.1 km/h
58%
11:00
14°
1008.7 hPa
28%
11.4°
2
Windvlaag: -0.4 km/h
47%
12:00
16°
1008.5 hPa
29%
11.5°
2
Windvlaag: 1.4 km/h
51%
13:00
16°
1008.1 hPa 1.4 mm
30%
10.5°
1
Windvlaag: 1.8 km/h
37%
14:00
16°
1007.7 hPa 1.4 mm
35%
10.1°
3
Windvlaag: -0.1 km/h
60%
15:00
15°
1007.7 hPa 1.4 mm
75%
11.1°
4
Windvlaag: -1.5 km/h
78%
16:00
15°
1007.2 hPa 1.5 mm
37%
10.8°
3
Windvlaag: -2 km/h
78%
17:00
15°
1007.0 hPa 1.5 mm
41%
10.7°
3
Windvlaag: -2 km/h
76%
18:00
14°
1007.1 hPa
84%
10.8°
2
Windvlaag: -1.7 km/h
79%
19:00
14°
1007.5 hPa 2.6 mm
83%
11.0°
3
Windvlaag: -1.6 km/h
78%
20:00
13°
1008.0 hPa 2.8 mm
90%
11.2°
3
Windvlaag: -1.7 km/h
58%
21:00
12°
1008.5 hPa
37%
10.8°
2
Windvlaag: -1.2 km/h
74%
22:00
13°
1009.2 hPa
37%
11.1°
2
Windvlaag: -1.4 km/h
48%
23:00
13°
1009.7 hPa
33%
10.6°
2
Windvlaag: -1.2 km/h
49%
 07:30     20:15    Daglengte: 12:45 Vrijdag 03 Apr
00:00
12°
1009.8 hPa
32%
10.7°
2
Windvlaag: -1.4 km/h
55%
01:00
12°
1009.9 hPa
33%
10.7°
2
Windvlaag: -1.4 km/h
23%
02:00
12°
1010.0 hPa
33%
10.6°
2
Windvlaag: -1.2 km/h
48%
03:00
12°
1010.2 hPa
32%
10.7°
2
Windvlaag: 7.5 km/h
58%
04:00
12°
1010.5 hPa
33%
10.5°
2
Windvlaag: 7.4 km/h
42%
05:00
12°
1010.8 hPa
37%
10.5°
3
Windvlaag: 6.9 km/h
59%
06:00
12°
1011.1 hPa
33%
10.4°
3
Windvlaag: 6.4 km/h
36%
07:00
12°
1011.7 hPa
35%
10.2°
3
Windvlaag: 7.5 km/h
24%
08:00
12°
1012.1 hPa
22%
10.1°
3
Windvlaag: 1.1 km/h
18%
09:00
13°
1012.4 hPa 13.4 mm
100%
9.9°
4
Windvlaag: 8.4 km/h
35%
10:00
14°
1013.0 hPa 13.4 mm
100%
9.4°
4
Windvlaag: 7.3 km/h
39%
11:00
14°
1013.6 hPa 13.4 mm
100%
8.9°
4
Windvlaag: 6.7 km/h
43%
12:00
15°
1014.2 hPa 13.4 mm
100%
8.3°
5
Windvlaag: 6.2 km/h
47%
Temp/Neerslag /Baro Onweer/Dauwpunt
    Temp Baro Neerslag Dauwpunt Wind Bewolking  
 07:34     20:13    Daglengte: 12:39 Vandaag
14:00
17°
1009.7 hPa 0.2 mm 10.9°
7
87%
17:00
16°
1008.8 hPa 0.1 mm 10.7°
6
63%
20:00
15°
1009.0 hPa   11.7°
5
29% warningclass
23:00
14°
1010.8 hPa   12.6°
5
79%
 07:33     20:14    Daglengte: 12:41 Morgen
02:00
14°
1010.8 hPa   12.7°
4
55%
05:00
13°
1010.4 hPa   13.0°
3
74%
08:00
13°
1010.9 hPa   12.9°
3
90%
11:00
16°
1011.8 hPa 0.8 mm 12.0°
3
72%
14:00
16°
1011.4 hPa 1.9 mm 12.5°
4
73% warningclass
17:00
16°
1010.4 hPa 2.9 mm 12.2°
4
60% warningclass
20:00
14°
1010.5 hPa   12.5°
3
35%
23:00
13°
1011.5 hPa 0.8 mm 12.3°
3
38%
 07:31     20:15    Daglengte: 12:44 Donderdag 02 Apr
02:00
13°
1010.4 hPa 2.0 mm 12.3°
3
48%
05:00
12°
1008.4 hPa 1.2 mm 11.9°
2
69%
08:00
12°
1008.2 hPa   11.7°
2
76%
11:00
14°
1008.7 hPa   11.4°
2
47%
14:00
16°
1007.7 hPa 2.8 mm 10.1°
3
60%
17:00
15°
1007.0 hPa 4.3 mm 10.7°
3
76%
20:00
13°
1008.0 hPa 5.4 mm 11.2°
3
58%
23:00
13°
1009.7 hPa   10.6°
2
49%
 07:30     20:15    Daglengte: 12:45 Vrijdag 03 Apr
02:00
12°
1010.0 hPa   10.6°
2
48%
05:00
12°
1010.8 hPa   10.5°
3
59%
08:00
12°
1012.1 hPa   10.1°
3
18%
11:00
14°
1013.6 hPa 40.1 mm 8.9°
4
43%
14:00
17°
1015.3 hPa 40.1 mm 6.5°
5
55%
17:00
15°
1016.3 hPa 16.0 mm 7.8°
3
20%
20:00
13°
1016.9 hPa 16.0 mm 8.0°
2
0%
23:00
11°
1018.1 hPa 16.0 mm 8.0°
1
3%
 07:28     20:16    Daglengte: 12:48 Zaterdag 04 Apr
02:00
10°
Voelt als: 9.7°
1019.1 hPa 16.0 mm 7.8°
1
6%
05:00
10°
Voelt als: 9.6°
1019.4 hPa 16.0 mm 6.9°
1
3%
08:00
10°
1019.9 hPa 16.0 mm 5.9°
1
0%
11:00
13°
1020.5 hPa 16.0 mm 6.8°
2
12%
14:00
17°
1021.2 hPa 16.1 mm 7.1°
3
24%
17:00
16°
1021.4 hPa 16.1 mm 8.3°
3
46%
20:00
14°
1021.6 hPa 16.1 mm 9.2°
2
67%
23:00
12°
1022.5 hPa 16.1 mm 8.7°
2
72%
 07:27     20:17    Daglengte: 12:50 Zondag 05 Apr
02:00
10°
1023.1 hPa 16.1 mm 8.1°
2
77%
05:00
10°
1022.9 hPa 16.1 mm 8.2°
2
83%
08:00
10°
1022.8 hPa 16.1 mm 8.4°
3
90%
11:00
14°
1022.9 hPa 16.1 mm 8.8°
3
68%
14:00
18°
1023.1 hPa 16.1 mm 7.6°
3
47%
17:00
16°
1022.9 hPa 16.1 mm 9.7°
2
30%
20:00
15°
1022.8 hPa 16.1 mm 11.1°
1
14%
23:00
13°
1024.0 hPa 16.1 mm 10.9°
2
17%
 07:25     20:18    Daglengte: 12:53 Maandag 06 Apr
02:00
11°
1025.1 hPa 16.1 mm 10.5°
2
20%
05:00
11°
1025.1 hPa 16.1 mm 10.5°
2
14%
08:00
11°
1025.1 hPa 16.1 mm 10.5°
2
9%
11:00
15°
1025.8 hPa 16.1 mm 10.3°
2
19%
14:00
19°
1026.3 hPa 16.1 mm 8.7°
2
29%
17:00
17°
1026.1 hPa 16.2 mm 10.5°
2
60%
20:00
15°
1025.9 hPa 16.2 mm 11.6°
1
91%
23:00
14°
1026.8 hPa 16.2 mm 11.2°
2
89%
 07:23     20:19    Daglengte: 12:56 Dinsdag 07 Apr
02:00
12°
1027.7 hPa 16.3 mm 10.7°
2
87%
05:00
12°
1027.4 hPa 16.6 mm 10.4°
2
85%
08:00
12°
1027.2 hPa 16.9 mm 10.0°
2
84%
11:00
16°
1027.1 hPa   9.9°
2
45%
14:00
20°
1027.0 hPa 34.7 mm 7.9°
2
6%
20:00
15°
1025.6 hPa 35.1 mm 11.3°
3
81%
 07:22     20:20    Daglengte: 12:58 Woensdag 08 Apr
02:00
12°
1026.5 hPa 35.1 mm 11.2°
1
11%
08:00
11°
1025.3 hPa 35.1 mm 11.1°
2
59%
14:00
19°
1025.7 hPa 35.8 mm 11.3°
3
90%
20:00
16°
1025.7 hPa 37.7 mm 12.2°
2
92%
 07:20     20:21    Daglengte: 13:01 Donderdag 09 Apr
02:00
14°
1027.1 hPa 37.8 mm 12.8°
1
91%
08:00
12°
1025.4 hPa 37.8 mm 11.1°
1
0%
14:00
19°
1025.0 hPa 38.2 mm 12.0°
4
2%
20:00
16°
1022.9 hPa 39.6 mm 12.4°
1
0%
 07:19     20:22    Daglengte: 13:03 Vrijdag 10 Apr
02:00
14°
1020.3 hPa 39.7 mm 12.7°
1
1%
08:00
14°
1016.6 hPa 0.8 mm 12.0°
2
47%
14:00
18°
1018.7 hPa 0.5 mm 11.1°
2
39%
20:00
16°
1017.6 hPa   11.7°
0
28%
 07:17     20:23    Daglengte: 13:06 Zaterdag 11 Apr
02:00
14°
1018.4 hPa   11.3°
1
12%
08:00
14°
1017.6 hPa 0.1 mm 11.2°
1
16%
14:00
18°
1019.0 hPa 0.1 mm 10.3°
2
23%
20:00
16°
1017.5 hPa 0.3 mm 11.1°
0
30%
 07:16     20:24    Daglengte: 13:08 Zondag 12 Apr
02:00
14°
1018.3 hPa 0.1 mm 11.1°
1
31%
08:00
14°
1017.9 hPa 0.3 mm 11.0°
1
50%
14:00
17°
1019.6 hPa 0.4 mm 9.8°
2
40%
20:00
16°
1018.5 hPa 0.2 mm 10.2°
1
36%
 07:14     20:25    Daglengte: 13:11 Maandag 13 Apr
02:00
14°
1018.8 hPa 0.1 mm 10.7°
1
32%
08:00
14°
1017.9 hPa   11.0°
1
36%
14:00
18°
1018.8 hPa 0.2 mm 10.7°
1
39%
20:00
16°
1017.1 hPa 0.3 mm 11.6°
0
32%
 07:13     20:26    Daglengte: 13:13 Dinsdag 14 Apr
02:00
14°
1017.1 hPa 0.5 mm 11.7°
1
35%
08:00
14°
1016.4 hPa 0.3 mm 11.8°
1
39%
14:00
18°
1017.8 hPa 0.4 mm 10.9°
1
43%
20:00
17°
1016.3 hPa 0.4 mm 11.7°
1
36%
 07:11     20:27    Daglengte: 13:16 Woensdag 15 Apr
02:00
15°
1016.4 hPa 0.2 mm 11.5°
1
37%
08:00
15°
1015.6 hPa 0.4 mm 11.3°
2
31%
  CAPE Lifted Index Hail Supercell Tornado SRH 3km CL BTM PRES CL TOP PRES Swiss DWD icon SMHI TS
 07:34     20:13    Daglengte: 12:39 Vandaag
13:00 126 J/kg -0.6 K 0 % 0 % 0 % 0 m²/s² 0 0 0.12 3
14:00 411 J/kg -1.6 K 0 % 0 % 0 % 0 m²/s² 0 0 -0.7 61
15:00 133 J/kg -0.7 K 0 % 0 % 0 % 0 m²/s² 0 0 0.26 61
16:00 210 J/kg -1.0 K 0 % 0 % 0 % 0 m²/s² 0 0 -0.28 80
17:00 158 J/kg -1.1 K 0 % 0 % 0 % 0 m²/s² 0 0 -0.32 61
18:00 199 J/kg -1.3 K 0 % 0 % 0 % 0 m²/s² 0 0 0.17 95
19:00 222 J/kg -1.6 K 0 % 0 % 0 % 0 m²/s² 0 0 0.41 95
20:00 317 J/kg -2.2 K 0 % 0 % 0 % 0 m²/s² 0 0 -0.28 95
21:00 171 J/kg -1.5 K 0 % 0 % 0 % 0 m²/s² 0 0 0.69 95
22:00 1 J/kg -0.1 K 0 % 0 % 0 % 0 m²/s² 0 0 1.94 95
23:00 13 J/kg -0.5 K 0 % 0 % 0 % 0 m²/s² 0 0 1.9 80
 07:33     20:14    Daglengte: 12:41 Morgen
00:00 102 J/kg -0.9 K 0 % 0 % 0 % 0 m²/s² 0 0 1.8 80
01:00 53 J/kg -0.6 K 0 % 0 % 0 % 0 m²/s² 0 0 1.95 80
02:00 33 J/kg -0.3 K 0 % 0 % 0 % 0 m²/s² 0 0 1.83 80
03:00 1 J/kg 0.2 K 0 % 0 % 0 % 0 m²/s² 0 0 2.24 80
04:00 0 J/kg 0.5 K 0 % 0 % 0 % 0 m²/s² 0 0 2.48 3
05:00 0 J/kg 0.5 K 0 % 0 % 0 % 0 m²/s² 0 0 2.42 3
06:00 0 J/kg 0.2 K 0 % 0 % 0 % 0 m²/s² 0 0 2.06 80
07:00 0 J/kg 0.1 K 0 % 0 % 0 % 0 m²/s² 0 0 1.66 80
08:00 0 J/kg 0.2 K 0 % 0 % 0 % 0 m²/s² 0 0 1.4 3
09:00 47 J/kg -0.2 K 0 % 0 % 0 % 0 m²/s² 0 0 0.94 80
10:00 45 J/kg -0.1 K 0 % 0 % 0 % 0 m²/s² 0 0 0.98 80
11:00 210 J/kg -1.1 K 0 % 0 % 0 % 0 m²/s² 0 0 -0.68 80
12:00 256 J/kg -0.8 K 0 % 0 % 0 % 0 m²/s² 0 0 -0.44 95
13:00 381 J/kg -1.5 K 0 % 0 % 0 % 0 m²/s² 0 0 -1.14 95
14:00 405 J/kg -1.8 K 0 % 0 % 0 % 0 m²/s² 0 0 -1.26 95
15:00 671 J/kg -2.6 K 0 % 0 % 0 % 0 m²/s² 0 0 -1.64 95
16:00 485 J/kg -1.8 K 0 % 0 % 0 % 0 m²/s² 0 0 -0.36 95
17:00 97 J/kg -0.5 K 0 % 0 % 0 % 0 m²/s² 0 0 1.96 95
18:00 40 J/kg 0.1 K 0 % 0 % 0 % 0 m²/s² 0 0 3.88 80
19:00 299 J/kg -1.1 K 0 % 0 % 0 % 0 m²/s² 0 0 3.79 2
20:00 262 J/kg -1.1 K 0 % 0 % 0 % 0 m²/s² 0 0 4.03 2
21:00 25 J/kg -0.2 K 0 % 0 % 0 % 0 m²/s² 0 0 5.23 2
22:00 1 J/kg 0.1 K 0 % 0 % 0 % 0 m²/s² 0 0 5.23 2
23:00 1 J/kg 0.2 K 0 % 0 % 0 % 0 m²/s² 0 0 5.06 2
 07:31     20:15    Daglengte: 12:44 Donderdag 02 Apr
00:00 13 J/kg 0.1 K 0 % 0 % 0 % 0 m²/s² 0 0 4.72 2
01:00 49 J/kg -0.3 K 0 % 0 % 0 % 0 m²/s² 0 0 4.2 2
02:00 132 J/kg -0.7 K 0 % 0 % 0 % 0 m²/s² 0 0 4.28 2
03:00 217 J/kg -1.2 K 0 % 0 % 0 % 0 m²/s² 0 0 4.32 2
04:00 326 J/kg -1.5 K 0 % 0 % 0 % 0 m²/s² 0 0 3.33 2
05:00 442 J/kg -1.8 K 0 % 0 % 0 % 0 m²/s² 0 0 1.23 2
06:00 445 J/kg -1.9 K 0 % 0 % 0 % 0 m²/s² 0 0 0.44 3
07:00 395 J/kg -1.7 K 0 % 0 % 0 % 0 m²/s² 0 0 0.52 3
08:00 394 J/kg -1.8 K 0 % 0 % 0 % 0 m²/s² 0 0 0.21 3
09:00 627 J/kg -2.5 K 0 % 0 % 0 % 0 m²/s² 0 0 -0.67 3
10:00 809 J/kg -3.2 K 0 % 0 % 0 % 0 m²/s² 0 0 -1.43 2
11:00 700 J/kg -2.9 K 0 % 0 % 0 % 0 m²/s² 0 0 -1.25 2
12:00 576 J/kg -2.3 K 0 % 0 % 0 % 0 m²/s² 0 0 -0.65 3
13:00 594 J/kg -2.5 K 0 % 0 % 0 % 0 m²/s² 0 0 -1.33 1
14:00 583 J/kg -2.5 K 0 % 0 % 0 % 0 m²/s² 0 0 -1.39 3
15:00 198 J/kg -0.5 K 0 % 0 % 0 % 0 m²/s² 0 0 0.52 3
16:00 0 J/kg 0.7 K 0 % 0 % 0 % 0 m²/s² 0 0 1.36 3
17:00 389 J/kg -1.5 K 0 % 0 % 0 % 0 m²/s² 0 0 -0.87 2
18:00 357 J/kg -1.4 K 0 % 0 % 0 % 0 m²/s² 0 0 -1.28 3
19:00 317 J/kg -1.2 K 0 % 0 % 0 % 0 m²/s² 0 0 -0.45 3
20:00 211 J/kg -0.8 K 0 % 0 % 0 % 0 m²/s² 0 0 0.7 80
21:00 133 J/kg -0.4 K 0 % 0 % 0 % 0 m²/s² 0 0 1.43 3
22:00 59 J/kg -0.1 K 0 % 0 % 0 % 0 m²/s² 0 0 2.93 3
23:00 42 J/kg 0.2 K 0 % 0 % 0 % 0 m²/s² 0 0 3.74 3
 07:30     20:15    Daglengte: 12:45 Vrijdag 03 Apr
00:00 69 J/kg 0.0 K 0 % 0 % 0 % 0 m²/s² 0 0 3.18 3
01:00 65 J/kg -0.1 K 0 % 0 % 0 % 0 m²/s² 0 0 2.69 0
02:00 126 J/kg -0.4 K 0 % 0 % 0 % 0 m²/s² 0 0 1.61 3
03:00 140 J/kg -0.5 K 0 % 0 % 0 % 0 m²/s² 0 0 0.94 3
04:00 116 J/kg -0.2 K 0 % 0 % 0 % 0 m²/s² 0 0 0.91 1
05:00 63 J/kg 0.2 K 0 % 0 % 0 % 0 m²/s² 0 0 0.98 3
06:00 21 J/kg 0.7 K 0 % 0 % 0 % 0 m²/s² 0 0 1.36 2
07:00 16 J/kg 1.2 K 0 % 0 % 0 % 0 m²/s² 0 0 1.74 2
08:00 0 J/kg 2.0 K 0 % 0 % 0 % 0 m²/s² 0 0 2.87 1
09:00 1 J/kg 1.9 K 0 % 0 % 0 % 0 m²/s² 0 0 3.49
10:00 2 J/kg 2.3 K 0 % 0 % 0 % 0 m²/s² 0 0 4.64
11:00 6 J/kg 3.0 K 0 % 0 % 0 % 0 m²/s² 0 0 5.85
12:00 5 J/kg 3.3 K 0 % 0 % 0 % 0 m²/s² 0 0 5.91
Temp Baro Wind Neerslag
  EWN Forecast EWN WRFDA DWD ICON FMI HIRLAM MET Norway GFS
 07:34     20:13    Daglengte: 12:39 Vandaag
14:00 16.5° 1009.7 hPa 7.4 m/s 0.2 mm 19.0° 1009.0 hPa 7.1 m/s 0.0 mm 16.2° 1010.1 hPa 6.1 m/s -1.9 mm 16.4° 1009.8 hPa 10.0 m/s 0.0 mm 17.0° 1009.1 hPa 7.4 m/s 17.5° 1010.0 hPa 6.8 m/s
17:00 16.0° 1008.8 hPa 5.9 m/s 0.1 mm 17.5° 1009.4 hPa 6.7 m/s 0.1 mm 15.4° 1008.8 hPa 2.3 m/s 1.7 mm 15.8° 1008.7 hPa 8.1 m/s 0.0 mm 17.3° 1008.5 hPa 5.8 m/s 16.5° 1009.5 hPa 6.8 m/s
20:00 15.0° 1009.0 hPa 5.4 m/s 0.0 mm 15.8° 1009.7 hPa 3.7 m/s 0.1 mm 14.6° 1009.2 hPa 2.2 m/s 4.5 mm 15.4° 1009.0 hPa 6.8 m/s 0.0 mm 15.2° 1008.8 hPa 5.6 m/s 14.5° 1009.5 hPa 3.3 m/s
23:00 13.8° 1010.8 hPa 5.0 m/s 0.0 mm 12.9° 1012.4 hPa 5.0 m/s 0.1 mm 14.2° 1011.1 hPa 2.6 m/s 3.2 mm 15.0° 1010.7 hPa 6.8 m/s 0.0 mm 13.8° 1010.4 hPa 5.0 m/s 13.0° 1012.1 hPa 4.3 m/s
 07:33     20:14    Daglengte: 12:41 Morgen
02:00 13.8° 1010.8 hPa 4.3 m/s 0.0 mm 13.6° 1012.6 hPa 5.9 m/s 0.1 mm 13.9° 1011.2 hPa 3.2 m/s 0.7 mm 15.1° 1010.9 hPa 5.1 m/s 0.0 mm 13.7° 1010.5 hPa 3.9 m/s 13.5° 1012.3 hPa 5.0 m/s
05:00 13.4° 1010.4 hPa 3.0 m/s 0.0 mm 11.7° 1011.7 hPa 4.9 m/s 0.2 mm 13.7° 1010.4 hPa 2.4 m/s 0.6 mm 15.0° 1010.3 hPa 4.2 m/s 0.0 mm 13.3° 1010.4 hPa 2.5 m/s 13.0° 1011.3 hPa 4.8 m/s
08:00 13.5° 1010.9 hPa 2.6 m/s 0.0 mm 12.7° 1012.6 hPa 4.8 m/s 0.2 mm 13.4° 1010.4 hPa 1.9 m/s 0.5 mm 14.9° 1010.9 hPa 3.2 m/s 0.0 mm 13.4° 1011.1 hPa 2.4 m/s 12.9° 1011.9 hPa 4.1 m/s
11:00 15.6° 1011.8 hPa 3.2 m/s 0.8 mm 16.6° 1012.4 hPa 8.3 m/s 0.4 mm 14.3° 1011.4 hPa 0.5 m/s 1.4 mm 17.3° 1011.9 hPa 3.5 m/s 0.0 mm 15.8° 1011.9 hPa 2.9 m/s 15.9° 1012.2 hPa 5.8 m/s
14:00 16.0° 1011.4 hPa 4.3 m/s 1.9 mm 14.6° 1013.1 hPa 7.4 m/s 1.8 mm 15.4° 1010.3 hPa 3.3 m/s 3.4 mm 18.0° 1011.5 hPa 4.2 m/s 0.0 mm 16.7° 1011.8 hPa 4.0 m/s 17.1° 1012.3 hPa 5.7 m/s
17:00 15.8° 1010.4 hPa 4.0 m/s 2.9 mm 15.7° 1011.1 hPa 5.1 m/s 5.5 mm 15.5° 1009.0 hPa 3.6 m/s 2.7 mm 17.7° 1010.6 hPa 4.9 m/s 0.0 mm 15.7° 1010.8 hPa 3.3 m/s 16.7° 1010.6 hPa 4.5 m/s
20:00 14.0° 1010.5 hPa 3.2 m/s 0.0 mm 14.2° 1011.0 hPa 5.9 m/s 5.9 mm 14.6° 1009.6 hPa 3.4 m/s 0.0 mm 15.0° 1010.7 hPa 4.1 m/s 0.0 mm 13.6° 1010.6 hPa 1.7 m/s 14.5° 1010.0 hPa 2.4 m/s
23:00 13.3° 1011.5 hPa 3.5 m/s 0.8 mm 10.4° 1013.4 hPa 3.0 m/s 6.3 mm 13.7° 1010.3 hPa 2.6 m/s 0.0 mm 14.3° 1012.0 hPa 4.4 m/s 0.0 mm 13.5° 1011.5 hPa 3.4 m/s 12.9° 1011.7 hPa 2.8 m/s
 07:31     20:15    Daglengte: 12:44 Donderdag 02 Apr
02:00 13.3° 1010.4 hPa 2.9 m/s 2.0 mm 12.4° 1012.5 hPa 3.9 m/s 6.7 mm 13.5° 1009.6 hPa 2.7 m/s 0.1 mm 13.9° 1011.0 hPa 3.9 m/s 0.0 mm 13.3° 1010.4 hPa 1.8 m/s 12.5° 1010.6 hPa 2.5 m/s
05:00 12.2° 1008.4 hPa 2.2 m/s 1.2 mm 12.0° 1011.4 hPa 2.9 m/s 7.4 mm 13.0° 1007.7 hPa 2.1 m/s 0.1 mm 12.1° 1008.5 hPa 1.2 m/s 11.9° 1009.3 hPa 1.6 m/s
08:00 11.9° 1008.2 hPa 2.0 m/s 0.0 mm 12.4° 1010.7 hPa 4.1 m/s 8.1 mm 12.5° 1008.2 hPa 1.5 m/s 0.0 mm 11.4° 1008.2 hPa 1.9 m/s 12.2° 1008.8 hPa 2.7 m/s
11:00 14.1° 1008.7 hPa 1.6 m/s 0.0 mm 14.8° 1010.7 hPa 6.7 m/s 9.0 mm 14.7° 1008.3 hPa 2.1 m/s 0.0 mm 14.0° 1008.8 hPa 1.1 m/s 16.2° 1009.3 hPa 3.6 m/s
14:00 16.2° 1007.7 hPa 2.6 m/s 2.8 mm 14.9° 1011.8 hPa 7.3 m/s 11.1 mm 16.5° 1007.2 hPa 2.9 m/s 0.0 mm 16.8° 1007.6 hPa 1.1 m/s 17.4° 1010.1 hPa 4.0 m/s
17:00 15.3° 1007.0 hPa 2.7 m/s 4.3 mm 15.4° 1010.5 hPa 3.8 m/s 16.3 mm 16.5° 1006.5 hPa 2.7 m/s 0.0 mm 15.5° 1006.9 hPa 0.9 m/s 17.0° 1008.8 hPa 4.0 m/s
20:00 13.1° 1008.0 hPa 2.6 m/s 5.4 mm 13.2° 1010.9 hPa 5.6 m/s 31.5 mm 15.0° 1007.8 hPa 2.5 m/s 0.5 mm 12.8° 1007.8 hPa 1.6 m/s 14.6° 1009.5 hPa 3.4 m/s
23:00 12.7° 1009.7 hPa 2.1 m/s 0.0 mm 10.6° 1012.9 hPa 4.0 m/s 38.5 mm 13.3° 1009.6 hPa 2.0 m/s 0.0 mm 13.0° 1009.4 hPa 1.3 m/s 12.4° 1011.3 hPa 4.0 m/s
 07:30     20:15    Daglengte: 12:45 Vrijdag 03 Apr
02:00 11.7° 1010.0 hPa 2.1 m/s 0.0 mm 11.7° 1012.7 hPa 3.7 m/s 38.7 mm 12.6° 1010.1 hPa 1.6 m/s 0.0 mm 11.6° 1009.7 hPa 1.9 m/s 12.3° 1011.0 hPa 5.3 m/s
05:00 11.8° 1010.8 hPa 2.6 m/s 0.0 mm 11.3° 1011.6 hPa 4.3 m/s 39.6 mm 12.3° 1010.6 hPa 2.4 m/s 0.0 mm 11.8° 1010.7 hPa 2.3 m/s 12.3° 1010.4 hPa 6.4 m/s
08:00 11.8° 1012.1 hPa 3.3 m/s 0.0 mm 10.4° 1012.3 hPa 4.6 m/s 40.1 mm 12.1° 1013.0 hPa 3.5 m/s 0.0 mm 11.9° 1011.7 hPa 2.8 m/s 12.5° 1011.1 hPa 7.9 m/s
11:00 14.4° 1013.6 hPa 4.3 m/s 40.1 mm 14.6° 1013.9 hPa 5.8 m/s 40.1 mm 14.4° 1013.5 hPa 4.1 m/s 15.0° 1013.0 hPa 9.0 m/s
14:00 16.9° 1015.3 hPa 5.3 m/s 40.1 mm 16.8° 1014.5 hPa 4.7 m/s 40.1 mm 16.9° 1015.4 hPa 5.4 m/s 16.3° 1014.7 hPa 8.3 m/s
17:00 14.6° 1016.3 hPa 3.1 m/s 16.0 mm 14.4° 1016.5 hPa 2.7 m/s 15.9° 1014.3 hPa 7.7 m/s 16.0 mm
20:00 13.2° 1016.9 hPa 1.6 m/s 16.0 mm 13.2° 1017.1 hPa 1.3 m/s 12.9° 1015.2 hPa 4.9 m/s 16.0 mm
23:00 11.4° 1018.1 hPa 1.3 m/s 16.0 mm 11.4° 1018.2 hPa 1.1 m/s 10.7° 1017.2 hPa 4.0 m/s 16.0 mm
 07:28     20:16    Daglengte: 12:48 Zaterdag 04 Apr
02:00 9.7° 1019.1 hPa 0.9 m/s 16.0 mm 9.7° 1019.2 hPa 0.8 m/s 10.3° 1017.8 hPa 2.4 m/s 16.0 mm
05:00 9.6° 1019.4 hPa 0.9 m/s 16.0 mm 9.6° 1019.6 hPa 0.8 m/s 10.1° 1017.2 hPa 2.7 m/s 16.0 mm
08:00 9.6° 1019.9 hPa 0.9 m/s 16.0 mm 9.5° 1020.0 hPa 0.7 m/s 10.1° 1018.2 hPa 2.9 m/s 16.0 mm
11:00 13.4° 1020.5 hPa 2.1 m/s 16.0 mm 13.2° 1020.6 hPa 2.0 m/s 15.2° 1019.1 hPa 3.6 m/s 16.0 mm
14:00 17.0° 1021.2 hPa 3.4 m/s 16.1 mm 17.0° 1021.3 hPa 3.3 m/s 16.9° 1020.3 hPa 4.3 m/s 16.0 mm
17:00 15.6° 1021.4 hPa 2.5 m/s 16.1 mm 15.6° 1021.5 hPa 2.4 m/s 15.4° 1019.5 hPa 4.2 m/s 16.1 mm
20:00 14.1° 1021.6 hPa 1.7 m/s 16.1 mm 14.2° 1021.8 hPa 1.5 m/s 13.4° 1019.6 hPa 3.9 m/s 16.1 mm
23:00 12.1° 1022.5 hPa 1.7 m/s 16.1 mm 12.2° 1022.5 hPa 1.6 m/s 10.8° 1021.5 hPa 3.3 m/s 16.1 mm
 07:27     20:17    Daglengte: 12:50 Zondag 05 Apr
02:00 10.2° 1023.1 hPa 1.8 m/s 16.1 mm 10.2° 1023.3 hPa 1.6 m/s 10.3° 1021.1 hPa 3.7 m/s 16.1 mm
05:00 10.1° 1022.9 hPa 2.2 m/s 16.1 mm 10.1° 1023.2 hPa 2.0 m/s 10.0° 1019.3 hPa 4.1 m/s 16.1 mm
08:00 10.1° 1022.8 hPa 2.5 m/s 16.1 mm 10.1° 1023.1 hPa 2.4 m/s 10.6° 1019.4 hPa 4.1 m/s 16.1 mm
11:00 14.2° 1022.9 hPa 2.9 m/s 16.1 mm 14.1° 1023.2 hPa 2.7 m/s 15.4° 1019.6 hPa 5.2 m/s 16.1 mm
14:00 18.1° 1023.1 hPa 3.2 m/s 16.1 mm 18.1° 1023.4 hPa 3.0 m/s 17.5° 1019.8 hPa 5.6 m/s 16.1 mm
17:00 16.4° 1022.9 hPa 2.2 m/s 16.1 mm 16.4° 1023.3 hPa 1.9 m/s 17.5° 1018.3 hPa 5.2 m/s 16.1 mm
20:00 14.6° 1022.8 hPa 1.1 m/s 16.1 mm 14.6° 1023.3 hPa 0.9 m/s 14.6° 1017.9 hPa 3.8 m/s 16.1 mm
23:00 12.9° 1024.0 hPa 1.5 m/s 16.1 mm 12.9° 1024.5 hPa 1.4 m/s 12.5° 1019.1 hPa 3.3 m/s 16.1 mm
 07:25     20:18    Daglengte: 12:53 Maandag 06 Apr
02:00 11.4° 1025.1 hPa 1.9 m/s 16.1 mm 11.3° 1025.7 hPa 1.8 m/s 12.6° 1019.1 hPa 2.8 m/s 16.1 mm
05:00 11.4° 1025.1 hPa 2.2 m/s 16.1 mm 11.3° 1025.7 hPa 2.1 m/s 12.6° 1018.3 hPa 2.4 m/s 16.1 mm
08:00 11.4° 1025.1 hPa 2.5 m/s 16.1 mm 11.3° 1025.7 hPa 2.5 m/s 12.9° 1018.7 hPa 2.5 m/s 16.1 mm
11:00 15.2° 1025.8 hPa 2.5 m/s 16.1 mm 15.1° 1026.3 hPa 2.5 m/s 16.8° 1019.7 hPa 2.5 m/s 16.1 mm
14:00 18.8° 1026.3 hPa 2.5 m/s 16.1 mm 18.8° 1026.9 hPa 2.4 m/s 18.3° 1020.0 hPa 3.2 m/s 16.1 mm
17:00 17.1° 1026.1 hPa 1.7 m/s 16.2 mm 17.1° 1026.8 hPa 1.6 m/s 18.2° 1018.7 hPa 3.1 m/s 16.2 mm
20:00 15.3° 1025.9 hPa 0.9 m/s 16.2 mm 15.3° 1026.6 hPa 0.8 m/s 15.8° 1018.2 hPa 1.7 m/s 16.2 mm
23:00 13.6° 1026.8 hPa 1.6 m/s 16.2 mm 13.5° 1027.5 hPa 1.5 m/s 14.6° 1019.6 hPa 1.9 m/s 16.2 mm
 07:23     20:19    Daglengte: 12:56 Dinsdag 07 Apr
02:00 12.0° 1027.7 hPa 2.2 m/s 16.3 mm 11.7° 1028.4 hPa 2.3 m/s 14.9° 1019.4 hPa 1.5 m/s 16.3 mm
05:00 12.0° 1027.4 hPa 2.3 m/s 16.6 mm 11.8° 1028.2 hPa 2.4 m/s 14.8° 1017.9 hPa 1.4 m/s 16.6 mm
08:00 12.1° 1027.2 hPa 2.4 m/s 16.9 mm 11.8° 1028.1 hPa 2.5 m/s 14.8° 1017.9 hPa 1.7 m/s 16.9 mm
11:00 15.7° 1027.1 hPa 2.3 m/s 17.3 mm 15.8° 1027.9 hPa 2.3 m/s 15.7° 1018.2 hPa 2.5 m/s 17.3 mm
14:00 19.6° 1027.0 hPa 2.3 m/s 17.4 mm 19.7° 1027.8 hPa 2.1 m/s 18.8° 1018.2 hPa 4.8 m/s 17.4 mm
20:00 15.2° 1025.6 hPa 2.6 m/s 17.6 mm 15.1° 1026.4 hPa 2.6 m/s 16.2° 1016.4 hPa 2.1 m/s 17.6 mm
 07:22     20:20    Daglengte: 12:58 Woensdag 08 Apr
02:00 11.9° 1026.5 hPa 1.3 m/s 17.6 mm 11.6° 1027.2 hPa 1.3 m/s 14.8° 1018.5 hPa 1.1 m/s 17.6 mm
08:00 11.5° 1025.3 hPa 1.5 m/s 17.6 mm 11.2° 1026.0 hPa 1.5 m/s 14.4° 1017.8 hPa 1.7 m/s 17.6 mm
14:00 18.9° 1025.7 hPa 2.5 m/s 18.2 mm 18.9° 1026.4 hPa 2.6 m/s 19.4° 1018.6 hPa 1.7 m/s 18.2 mm
20:00 16.4° 1025.7 hPa 1.6 m/s 18.9 mm 16.4° 1026.5 hPa 1.7 m/s 16.4° 1017.4 hPa 0.7 m/s 18.9 mm
 07:20     20:21    Daglengte: 13:01 Donderdag 09 Apr
02:00 14.0° 1027.1 hPa 0.9 m/s 18.9 mm 14.0° 1027.8 hPa 0.9 m/s 14.3° 1018.8 hPa 0.9 m/s 18.9 mm
08:00 12.3° 1025.4 hPa 1.2 m/s 18.9 mm 12.1° 1026.1 hPa 1.1 m/s 14.0° 1018.1 hPa 1.8 m/s 18.9 mm
14:00 18.8° 1025.0 hPa 4.3 m/s 19.3 mm 18.9° 1025.5 hPa 4.6 m/s 18.2° 1019.9 hPa 1.5 m/s 19.3 mm
20:00 15.7° 1022.9 hPa 1.4 m/s 19.9 mm 15.6° 1023.3 hPa 1.4 m/s 16.3° 1019.0 hPa 0.9 m/s 19.9 mm
 07:19     20:22    Daglengte: 13:03 Vrijdag 10 Apr
02:00 13.8° 1020.3 hPa 1.2 m/s 19.9 mm 13.8° 1020.3 hPa 1.2 m/s 19.9 mm
08:00 14.2° 1016.6 hPa 1.5 m/s 0.8 mm
14:00 17.7° 1018.7 hPa 1.7 m/s 0.5 mm
20:00 16.3° 1017.6 hPa 0.1 m/s 0.0 mm
 07:17     20:23    Daglengte: 13:06 Zaterdag 11 Apr
02:00 14.0° 1018.4 hPa 1.2 m/s 0.0 mm
08:00 14.0° 1017.6 hPa 0.7 m/s 0.1 mm
14:00 17.9° 1019.0 hPa 1.6 m/s 0.1 mm
20:00 16.1° 1017.5 hPa 0.3 m/s 0.3 mm
 07:16     20:24    Daglengte: 13:08 Zondag 12 Apr
02:00 14.4° 1018.3 hPa 1.3 m/s 0.1 mm
08:00 14.2° 1017.9 hPa 1.3 m/s 0.3 mm
14:00 17.0° 1019.6 hPa 2.1 m/s 0.4 mm
20:00 15.6° 1018.5 hPa 0.7 m/s 0.2 mm
 07:14     20:25    Daglengte: 13:11 Maandag 13 Apr
02:00 13.9° 1018.8 hPa 1.2 m/s 0.1 mm
08:00 14.0° 1017.9 hPa 0.9 m/s 0.0 mm
14:00 18.0° 1018.8 hPa 1.5 m/s 0.2 mm
20:00 16.4° 1017.1 hPa 0.3 m/s 0.3 mm
 07:13     20:26    Daglengte: 13:13 Dinsdag 14 Apr
02:00 14.3° 1017.1 hPa 0.6 m/s 0.5 mm
08:00 14.5° 1016.4 hPa 1.2 m/s 0.3 mm
14:00 18.2° 1017.8 hPa 1.4 m/s 0.4 mm
20:00 16.7° 1016.3 hPa 1.0 m/s 0.4 mm
 07:11     20:27    Daglengte: 13:16 Woensdag 15 Apr
02:00 14.7° 1016.4 hPa 0.9 m/s 0.2 mm
08:00 14.5° 1015.6 hPa 2.4 m/s 0.4 mm
FMI Hirlam - 7.5 km EWN WRFDA - 12 km DWD ICON - 7 km GFS - 25 km Basiskaart






























































Updatetijd (Europe/Amsterdam) Resolutie Lengte Stap
FMI Hirlam 07:00, 13:00, 19:00, 01:00 7.5 km 49h 1h
EWN WRFDA 09:30, 15:30, 21:30, 03:30 12 km 73h 1h
DWD ICON 11:45, 17:45, 23:45, 05:45 7 km 75h 1h
GFS 08:00, 14:00, 20:00, 02:00 25 km 237h 3h
30+ mm
25-30 mm
20-25 mm
15-20 mm
10-15 mm
6-10 mm
4-6 mm
2-4 mm
1-2 mm
0.5-1 mm
0.2-0.5 mm
0.1-0.2 mm
30+ mm
25-30 mm
20-25 mm
15-20 mm
10-15 mm
6-10 mm
4-6 mm
2-4 mm
1-2 mm
0.5-1 mm
0.2-0.5 mm
0.1-0.2 mm
Sneeuwval
Natte sneeuw
Hagel
Vorst
30+ mm
25-30 mm
20-25 mm
15-20 mm
10-15 mm
6-10 mm
4-6 mm
2-4 mm
1-2 mm
0.5-1 mm
0.2-0.5 mm
0.1-0.2 mm
Sneeuwval
Natte sneeuw
Hagel
Vorst
Onweer
50 mm
40 mm
30 mm
26 mm
22 mm
18 mm
14 mm
10 mm
9 mm
8 mm
7 mm
6 mm
5 mm
4.5 mm
4 mm
3.5 mm
3 mm
2.5 mm
2 mm
1.5 mm
1 mm
0.8 mm
0.6 mm
0.4 mm
0.2 mm
0.05 mm
35°
30°
25°
20°
15°
10°
-5°
-10°
-15°
-20°
-25°
-30°
-35°
120> km/h
105 km/h
90 km/h
75 km/h
60 km/h
50 km/h
40 km/h
30 km/h
20 km/h
10 km/h
0 km/h
2600 J/kg
2400 J/kg
2200 J/kg
2000 J/kg
1800 J/kg
1600 J/kg
1400 J/kg
1200 J/kg
1000 J/kg
800 J/kg
600 J/kg
400 J/kg
200 J/kg
70 dBZ
65 dBZ
60 dBZ
55 dBZ
50 dBZ
45 dBZ
40 dBZ
35 dBZ
30 dBZ
25 dBZ
20 dBZ
15 dBZ
10 dBZ
5 dBZ
-1 K
-2 K
-3 K
-4 K
-5 K
-6 K
-7 K
-8 K
-9 K
950 m²/s²
900 m²/s²
850 m²/s²
800 m²/s²
750 m²/s²
700 m²/s²
650 m²/s²
600 m²/s²
550 m²/s²
500 m²/s²
450 m²/s²
400 m²/s²
350 m²/s²
300 m²/s²
250 m²/s²
200 m²/s²
150 m²/s²
100 m²/s²
46 m/s
44 m/s
42 m/s
40 m/s
38 m/s
36 m/s
34 m/s
32 m/s
30 m/s
28 m/s
26 m/s
24 m/s
22 m/s
20 m/s
16 m/s
12 m/s
8 m/s
4 m/s
30 m/s
28 m/s
26 m/s
24 m/s
22 m/s
20 m/s
18 m/s
16 m/s
14 m/s
12 m/s
10 m/s
8 m/s
6 m/s
4 m/s
2 m/s
3.0
2.8
2.6
2.4
2.2
2.0
1.8
1.6
1.4
1.2
1.0
0.8
0.6
0.4
0.2
15
14
13
12
11
10
9
8
7
6
5
4
3
2
1
90%
80%
70%
60%
50%
40%
30%
20%
10%
42
40
38
36
34
32
30
28
26
24
22
20
18
16
14
12
90+ cm
80-90 cm
70-80 cm
60-70 cm
50-60 cm
40-50 cm
30-40 cm
20-30 cm
10-20 cm
1-10 cm
Sneeuwval
Natte sneeuw
Regen
>120 mm
115 mm
110 mm
105 mm
100 mm
95 mm
90 mm
85 mm
80 mm
75 mm
70 mm
65 mm
60 mm
55 mm
50 mm
45 mm
45 mm
40 mm
35 mm
30 mm
25 mm
20 mm
15 mm
10 mm
5 mm
0.1 mm
960 hPa
880 hPa
800 hPa
720 hPa
640 hPa
560 hPa
584 gpdm
568 gpdm
552 gpdm
536 gpdm
520 gpdm
504 gpdm
488 gpdm
Extreem zwaar Noodweer Kans op onweer
15% 15% 5% 50% 15%

Dag




Kaart






35°
30°
25°
20°
15°
10°
-5°
-10°